Total_Precipitation_Accumulation
1.12 1.29 1.29 1.16 1.32 1.65 1.08 0.91 1.20 1.08 0.77 0.73 0.66 0.63 0.61 0.59 0.62 0.60 1.16 1.13 1.02 1.02 1.27 1.84 2.05 2.25 2.21 2.02 1.96 2.18 2.10 2.07 2.12 2.22 2.46 2.70 2.75 2.54 2.05 1.49 1.29 1.36 1.25 1.59 1.67 1.08 2.09 1.54 1.34 0.70 0.96 1.71
0.93 1.93 1.08 1.32 1.29 1.46 2.68 2.59 1.04 1.01 1.17 1.02 0.75 0.77 0.69 0.95 1.01 0.90 1.01 1.17 1.03 1.13 1.16 1.16 1.11 1.58 1.77 1.89 1.84 1.80 1.68 1.83 1.88 1.75 1.75 1.85 1.71 1.77 1.91 2.08 2.25 2.22 1.75 1.34 1.06 1.06 0.95 1.62 1.71 1.40 1.28 0.90
1.41 1.42 0.81 0.77 1.05 1.30 1.13 1.67 2.04 1.70 1.14 1.00 1.63 1.33 1.15 0.93 0.91 0.87 0.80 0.65 0.63 0.48 0.61 0.58 0.66 0.82 1.26 1.86 1.59 1.74 1.65 1.57 1.65 1.81 1.68 1.48 1.70 1.69 1.47 1.36 1.28 1.27 1.32 1.14 1.04 1.12 1.24 1.18 1.14 0.75 0.74 1.06
1.54 1.17 0.87 1.11 0.99 0.85 1.02 0.99 0.91 1.47 1.91 1.82 1.49 1.33 1.81 1.92 1.30 0.81 0.59 0.63 0.51 0.62 0.33 0.41 0.25 0.34 0.53 0.71 1.08 1.40 1.57 1.45 1.47 1.46 1.61 1.68 1.47 1.51 1.47 1.43 1.32 1.33 1.26 1.26 1.06 1.01 0.94 1.33 1.70 1.16 0.78 0.74
0.77 0.76 1.03 0.82 0.93 0.91 0.53 0.94 0.86 0.96 1.08 1.05 1.64 1.50 1.08 1.17 1.13 0.81 0.55 0.54 0.57 0.52 0.42 0.32 0.38 0.35 0.41 0.45 0.55 0.75 0.89 1.18 1.41 1.56 1.41 1.42 1.31 1.47 1.30 1.41 1.50 1.32 1.38 1.26 1.08 0.92 0.92 0.93 1.05 1.19 1.20 0.96
0.52 0.54 0.47 0.79 0.88 0.69 0.65 0.48 0.45 0.66 0.90 0.70 0.76 0.80 0.80 0.99 1.11 1.13 1.01 0.90 0.63 0.65 0.61 0.59 0.42 0.44 0.36 0.42 0.57 0.67 1.02 0.95 0.99 1.24 1.32 1.34 1.44 1.22 1.11 1.33 1.40 1.56 1.44 1.42 1.25 1.37 1.11 1.02 1.08 0.98 0.81 0.90
0.91 0.44 0.52 0.51 0.68 0.59 0.48 0.47 0.53 0.73 0.79 0.71 1.02 0.76 0.68 0.51 0.54 0.59 0.65 0.73 0.75 0.82 0.75 0.66 0.60 0.47 0.42 0.42 0.53 0.70 0.66 0.94 1.13 1.32 1.05 0.94 1.14 1.37 1.42 1.34 1.33 1.45 1.48 1.63 1.21 1.26 1.27 1.37 1.15 1.04 0.98 0.77
0.88 1.16 0.65 0.63 1.08 0.78 0.62 0.49 0.65 0.59 0.88 1.30 0.67 0.87 0.66 0.56 0.49 0.45 0.43 0.43 0.50 0.50 0.48 0.52 0.40 0.40 0.44 0.40 0.38 0.38 0.53 0.59 0.67 0.77 0.84 0.87 0.87 0.85 0.96 1.20 1.19 1.27 1.59 1.37 1.35 1.22 1.23 1.24 1.27 1.12 1.21 1.06
1.27 1.73 1.11 1.18 0.99 0.68 0.66 0.46 0.38 0.48 0.47 0.51 0.45 0.50 0.72 0.69 0.64 0.51 0.59 0.47 0.41 0.42 0.38 0.37 0.32 0.34 0.27 0.28 0.31 0.31 0.44 0.42 0.46 0.49 0.68 0.61 0.69 0.74 0.77 0.73 0.80 1.00 1.27 1.29 1.24 1.20 1.18 1.27 1.21 1.01 1.04 1.06
0.69 1.21 1.60 1.15 1.29 1.38 1.21 0.88 0.89 0.59 0.58 0.44 0.43 0.45 0.41 0.52 0.41 0.56 0.44 0.44 0.35 0.22 0.20 0.19 0.21 0.19 0.27 0.29 0.32 0.49 0.37 0.35 0.37 0.41 0.43 0.54 0.56 0.59 0.53 0.58 0.57 0.60 0.81 1.06 1.19 1.15 1.04 1.07 1.06 1.05 1.04 0.97
0.62 0.67 1.16 1.52 1.81 1.11 1.35 0.92 0.77 0.61 0.72 0.75 0.58 0.76 0.59 0.59 0.49 0.57 0.48 0.35 0.57 0.37 0.34 0.28 0.28 0.33 0.36 0.28 0.23 0.25 0.29 0.21 0.33 0.25 0.23 0.21 0.21 0.35 0.39 0.43 0.44 0.57 0.62 0.69 0.83 1.00 1.14 1.09 0.97 0.93 0.99 0.96
0.78 0.64 0.60 0.93 1.12 1.69 1.43 1.66 1.59 1.22 1.11 1.23 0.89 0.84 0.74 0.95 0.80 0.63 0.63 0.63 0.48 0.54 0.69 0.46 0.47 0.38 0.29 0.22 0.25 0.22 0.23 0.19 0.15 0.25 0.23 0.19 0.13 0.15 0.23 0.33 0.38 0.44 0.48 0.61 0.62 0.68 0.84 0.97 0.91 0.86 0.83 0.79
0.48 0.66 0.75 0.93 1.14 0.88 0.90 0.84 0.98 0.85 1.13 0.90 0.83 0.63 0.51 0.65 0.55 0.63 0.57 0.51 0.46 0.58 0.49 0.40 0.34 0.39 0.35 0.33 0.34 0.37 0.19 0.18 0.17 0.19 0.21 0.17 0.16 0.18 0.22 0.25 0.31 0.38 0.39 0.48 0.61 0.59 0.61 0.73 0.82 0.80 0.83 0.74
0.36 0.53 0.62 0.55 0.58 0.76 0.67 0.79 0.83 0.85 1.03 0.81 0.62 0.67 0.79 0.71 0.67 0.53 0.67 0.69 0.58 0.56 0.64 0.42 0.38 0.42 0.40 0.38 0.30 0.21 0.16 0.14 0.11 0.12 0.11 0.13 0.12 0.15 0.13 0.13 0.17 0.28 0.36 0.37 0.45 0.57 0.60 0.62 0.63 0.73 0.77 0.80
0.15 0.17 0.49 0.58 0.67 0.36 0.34 0.56 0.59 0.73 0.59 0.56 0.68 0.65 0.63 0.66 0.64 0.58 0.51 0.57 0.37 0.46 0.37 0.40 0.33 0.34 0.30 0.37 0.26 0.46 0.19 0.21 0.15 0.10 0.08 0.08 0.09 0.14 0.07 0.07 0.14 0.15 0.16 0.26 0.34 0.43 0.50 0.58 0.56 0.53 0.71 0.72
0.15 0.13 0.29 0.41 0.31 0.51 0.60 0.53 0.58 0.49 0.39 0.83 1.29 0.69 0.49 0.45 0.78 0.40 0.56 0.68 0.48 0.46 0.50 0.48 0.41 0.36 0.37 0.27 0.31 0.34 0.27 0.19 0.14 0.18 0.26 0.24 0.12 0.12 0.08 0.06 0.06 0.12 0.12 0.10 0.17 0.29 0.36 0.45 0.65 0.56 0.57 0.60
0.22 0.39 0.22 0.35 0.23 0.25 0.60 0.75 0.65 0.71 0.55 0.72 0.77 0.94 0.82 1.22 1.05 0.76 0.65 0.68 0.59 0.56 0.55 0.52 0.56 0.54 0.44 0.41 0.55 0.55 0.44 0.42 0.42 0.31 0.13 0.12 0.12 0.19 0.14 0.19 0.10 0.12 0.10 0.10 0.10 0.10 0.19 0.35 0.38 0.46 0.55 0.51
0.28 0.14 0.22 0.78 0.35 0.35 0.29 0.35 0.43 0.74 0.61 0.39 0.57 0.64 0.60 0.72 0.46 0.60 0.52 0.53 0.48 0.52 0.60 0.68 0.61 0.63 0.59 0.54 0.57 0.53 0.43 0.52 0.48 0.44 0.32 0.32 0.18 0.17 0.22 0.17 0.13 0.14 0.12 0.10 0.10 0.12 0.12 0.11 0.28 0.31 0.36 0.49
0.12 0.16 0.33 0.46 0.42 0.61 0.48 0.32 0.38 0.38 0.30 0.67 0.59 0.58 0.57 0.50 0.67 0.52 0.46 0.69 0.54 0.53 0.47 0.56 0.59 0.57 0.73 0.60 0.58 0.59 0.51 0.54 0.50 0.61 0.44 0.51 0.29 0.27 0.25 0.19 0.15 0.16 0.18 0.18 0.12 0.12 0.12 0.11 0.14 0.20 0.29 0.30
0.12 0.18 0.26 0.46 0.49 1.10 0.81 0.67 0.91 1.24 0.77 0.86 0.96 1.21 0.73 0.69 1.31 0.71 0.65 0.52 0.46 0.44 0.51 0.53 0.55 0.66 0.59 0.65 0.58 0.64 0.61 0.65 0.60 0.56 0.62 0.50 0.43 0.35 0.32 0.29 0.25 0.22 0.17 0.14 0.15 0.11 0.08 0.08 0.10 0.12 0.15 0.21
0.12 0.14 0.17 0.17 0.49 0.42 0.79 0.66 0.93 1.06 1.20 0.83 0.58 1.02 0.79 0.81 0.71 0.77 0.73 0.78 0.82 0.70 0.68 0.66 0.54 0.50 0.55 0.57 0.63 0.64 0.61 0.51 0.64 0.57 0.64 0.68 0.68 0.53 0.48 0.42 0.31 0.22 0.20 0.17 0.13 0.12 0.14 0.13 0.10 0.07 0.08 0.14
0.14 0.16 0.18 0.30 0.46 0.33 0.41 0.42 0.51 0.70 0.76 0.65 0.52 0.80 0.94 0.98 0.77 1.03 0.94 0.77 0.74 0.70 0.73 0.85 0.78 0.67 0.69 0.66 0.68 0.72 0.72 0.68 0.61 0.59 0.60 0.65 0.73 0.71 0.57 0.52 0.47 0.41 0.31 0.21 0.15 0.13 0.12 0.11 0.12 0.12 0.08 0.08
0.17 0.15 0.21 0.24 0.36 0.45 0.49 0.46 0.36 0.71 0.55 0.50 0.51 0.57 0.67 0.82 0.77 0.65 0.77 0.90 0.82 0.85 0.80 0.86 0.86 0.83 0.79 0.74 0.80 0.84 0.84 0.87 0.81 0.67 0.58 0.59 0.59 0.67 0.77 0.69 0.53 0.46 0.37 0.33 0.29 0.18 0.14 0.13 0.10 0.09 0.10 0.11
0.15 0.22 0.22 0.25 0.28 0.39 0.43 0.45 0.54 0.44 0.43 0.39 0.40 0.58 0.82 1.03 0.62 0.61 0.72 0.65 0.67 0.78 0.80 0.82 0.87 0.87 0.93 0.83 0.88 0.89 0.96 0.94 0.86 0.97 0.94 0.86 0.73 0.73 0.73 0.75 0.72 0.60 0.51 0.45 0.38 0.31 0.22 0.18 0.15 0.12 0.10 0.10
0.18 0.19 0.28 0.36 0.29 0.27 0.28 0.31 0.37 0.38 0.39 0.54 0.70 0.73 0.64 0.50 0.51 0.48 0.63 0.46 0.60 0.67 0.69 0.60 0.67 0.72 0.75 0.71 0.80 0.85 0.90 0.93 0.96 1.04 1.08 1.15 1.18 1.13 0.96 0.87 0.75 0.71 0.66 0.62 0.55 0.44 0.36 0.27 0.21 0.18 0.16 0.16
0.14 0.17 0.24 0.26 0.29 0.40 0.34 0.31 0.29 0.32 0.33 0.37 0.68 0.49 0.54 0.63 0.75 0.76 0.75 0.56 0.55 0.48 0.46 0.46 0.51 0.52 0.53 0.69 0.53 0.57 0.67 0.74 0.81 0.93 0.98 0.99 1.03 1.09 1.00 0.93 0.85 0.84 0.86 1.02 0.84 0.63 0.47 0.32 0.25 0.24 0.24 0.23
0.12 0.11 0.11 0.14 0.16 0.22 0.21 0.38 0.50 0.68 0.58 0.72 0.48 0.67 0.69 0.63 0.66 0.72 0.57 0.63 0.68 0.75 0.69 0.69 0.52 0.44 0.48 0.54 0.60 0.52 0.55 0.61 0.67 0.79 0.78 0.81 0.84 0.89 0.82 0.82 0.86 0.93 0.98 1.02 0.88 0.71 0.63 0.55 0.39 0.27 0.25 0.25
0.10 0.10 0.08 0.08 0.10 0.10 0.13 0.13 0.25 0.55 0.32 0.39 0.39 0.36 0.34 0.44 0.52 0.57 0.59 0.78 0.67 0.84 0.64 0.61 0.59 0.61 0.50 0.48 0.47 0.49 0.47 0.50 0.55 0.59 0.66 0.74 0.81 0.82 0.80 0.79 0.75 0.73 0.73 0.96 1.02 1.11 1.08 0.95 0.60 0.48 0.35 0.26
0.10 0.13 0.18 0.20 0.23 0.23 0.19 0.14 0.12 0.10 0.16 0.21 0.25 0.28 0.31 0.30 0.29 0.39 0.35 0.47 0.43 0.46 0.62 0.67 0.59 0.62 0.59 0.50 0.50 0.48 0.47 0.46 0.46 0.46 0.55 0.59 0.67 0.75 0.87 0.81 0.70 0.67 0.67 0.72 0.86 1.21 1.10 1.07 0.92 0.76 0.55 0.28
0.07 0.09 0.11 0.15 0.18 0.20 0.19 0.19 0.15 0.16 0.11 0.08 0.09 0.09 0.10 0.25 0.32 0.25 0.23 0.29 0.51 0.44 0.55 0.56 0.69 0.65 0.65 0.68 0.62 0.60 0.51 0.53 0.41 0.45 0.41 0.44 0.49 0.55 0.59 0.68 0.70 0.74 0.65 0.69 0.73 0.89 1.12 1.13 0.96 0.68 0.44 0.34
0.05 0.08 0.11 0.14 0.11 0.07 0.09 0.11 0.12 0.13 0.15 0.15 0.22 0.52 0.13 0.12 0.24 0.17 0.18 0.31 0.37 0.48 0.37 0.51 0.48 0.55 0.54 0.57 0.68 0.74 0.66 0.61 0.56 0.47 0.56 0.55 0.45 0.48 0.50 0.54 0.59 0.57 0.56 0.54 0.61 0.74 0.84 0.85 0.84 0.75 0.60 0.54